Location: Wapato
(46.4478°N, 120.4212°W)
Time: 12:28:23
(UTC+00:00)

Tiros 1 despin weight - Visible Passes

Search period start: 13 May 2026 00:00
Search period end: 23 May 2026 00:00
Orbit: 555 x 591 km, 48.2° (Epoch: 12 May)

Date Brightness Start Highest point End Pass type
(mag) Time Alt. Az. Time Alt. Az. Time Alt. Az.
18 May ? 10:28:41 10° SSE 10:29:41 11° SE 10:30:41 10° ESE visible
19 May ? 10:29:37 14° SSE 10:31:13 16° SE 10:33:53 10° E visible
20 May ? 10:31:08 18° S 10:32:48 23° SE 10:36:11 10° E visible
21 May ? 10:32:36 23° S 10:34:26 32° SSE 10:38:14 10° E visible
22 May ? 10:34:00 25° SSW 10:36:05 44° SSE 10:40:09 10° ENE visible
